When you browse on this site, cookies collect data to enhance your experience and personalize the content and advertising you see.
Visit our Privacy Policy to learn more. By continuing to use the site, you agree to this use of cookies and data.
  • In Latvia
  • List of Countries
  • For 7 days
  • Water Temperature
  • Satellite Maps
  • Weather Map
  • Weather Widgets
  • user-avatar
    Login

    Hourly Weather Uida

    Today, 21 April, Sunday

    Time Temperature Precipitation Wind Pressure Humidity
    00:00 +30°C° 0 mm 4 mps 756 mmHg 79%
    01:00 +30°C° 0 mm 4 mps 756 mmHg 80%
    02:00 +30°C° 0 mm 3 mps 755 mmHg 81%
    03:00 +30°C° 0 mm 3 mps 755 mmHg 82%
    04:00 +30°C° 0 mm 3 mps 755 mmHg 82%
    05:00 +29°C° 0 mm 3 mps 755 mmHg 83%
    06:00 +29°C° 0 mm 3 mps 755 mmHg 83%
    07:00 +31°C° 0 mm 3 mps 755 mmHg 74%
    08:00 +34°C° 0 mm 3 mps 755 mmHg 66%
    09:00 +35°C° 0 mm 3 mps 756 mmHg 57%
    10:00 +37°C° 0 mm 3 mps 755 mmHg 51%
    11:00 +40°C° 0 mm 4 mps 755 mmHg 45%
    12:00 +40°C° 0 mm 5 mps 755 mmHg 45%
    13:00 +40°C° 0 mm 5 mps 755 mmHg 45%
    14:00 +40°C° 0 mm 6 mps 754 mmHg 45%
    15:00 +39°C° 0 mm 6 mps 754 mmHg 46%
    16:00 +36°C° 0 mm 6 mps 754 mmHg 54%
    17:00 +34°C° 0 mm 6 mps 754 mmHg 63%
    18:00 +32°C° 0 mm 6 mps 754 mmHg 71%
    19:00 +32°C° 0 mm 6 mps 754 mmHg 73%
    20:00 +32°C° 0 mm 6 mps 755 mmHg 75%
    21:00 +32°C° 0 mm 5 mps 755 mmHg 78%
    22:00 +30°C° 0 mm 5 mps 755 mmHg 78%
    23:00 +30°C° 0 mm 5 mps 755 mmHg 78%

    Tomorrow, 22 April, Monday

    Time Temperature Precipitation Wind Pressure Humidity
    00:00 +30°C° 0 mm 5 mps 755 mmHg 79%
    01:00 +30°C° 0 mm 5 mps 755 mmHg 80%
    02:00 +30°C° 0 mm 5 mps 754 mmHg 80%
    03:00 +30°C° 0 mm 5 mps 754 mmHg 81%
    04:00 +30°C° 0 mm 4 mps 754 mmHg 82%
    05:00 +29°C° 0 mm 4 mps 755 mmHg 83%
    06:00 +29°C° 0 mm 3 mps 755 mmHg 84%
    07:00 +32°C° 0.7 mm 4 mps 755 mmHg 76%
    08:00 +33°C° 0.7 mm 4 mps 756 mmHg 68%
    09:00 +35°C° 0.7 mm 4 mps 756 mmHg 60%
    10:00 +36°C° 0 mm 5 mps 756 mmHg 56%
    11:00 +37°C° 0 mm 5 mps 756 mmHg 51%
    12:00 +39°C° 0 mm 6 mps 755 mmHg 47%
    13:00 +39°C° 0 mm 6 mps 754 mmHg 48%
    14:00 +38°C° 0 mm 6 mps 754 mmHg 49%
    15:00 +38°C° 0 mm 6 mps 753 mmHg 49%
    16:00 +35°C° 0 mm 5 mps 753 mmHg 57%
    17:00 +34°C° 0 mm 5 mps 753 mmHg 64%
    18:00 +32°C° 0 mm 5 mps 753 mmHg 71%
    19:00 +32°C° 0 mm 5 mps 754 mmHg 73%
    20:00 +32°C° 0 mm 5 mps 754 mmHg 75%
    21:00 +30°C° 0 mm 5 mps 755 mmHg 77%
    22:00 +30°C° 0 mm 4 mps 755 mmHg 78%
    23:00 +30°C° 0 mm 4 mps 755 mmHg 80%

    Day after tomorrow, 23 April, Tuesday

    Time Temperature Precipitation Wind Pressure Humidity
    00:00 +30°C° 0 mm 3 mps 755 mmHg 81%
    01:00 +30°C° 1.3 mm 3 mps 755 mmHg 82%
    02:00 +29°C° 1.3 mm 4 mps 754 mmHg 83%
    03:00 +29°C° 1.3 mm 4 mps 754 mmHg 85%
    04:00 +29°C° 1.3 mm 4 mps 754 mmHg 85%
    05:00 +29°C° 1.3 mm 3 mps 754 mmHg 85%
    06:00 +29°C° 1.3 mm 3 mps 754 mmHg 86%
    07:00 +30°C° 0 mm 3 mps 755 mmHg 79%
    08:00 +32°C° 0 mm 4 mps 755 mmHg 72%
    09:00 +34°C° 0 mm 4 mps 756 mmHg 65%
    10:00 +35°C° 0 mm 4 mps 756 mmHg 58%
    11:00 +37°C° 0 mm 5 mps 755 mmHg 51%
    12:00 +40°C° 0 mm 5 mps 755 mmHg 44%
    13:00 +39°C° 0 mm 5 mps 754 mmHg 46%
    14:00 +39°C° 0 mm 5 mps 754 mmHg 47%
    15:00 +37°C° 0 mm 5 mps 753 mmHg 49%
    16:00 +36°C° 0 mm 5 mps 753 mmHg 56%
    17:00 +34°C° 0 mm 5 mps 753 mmHg 64%
    18:00 +32°C° 0 mm 5 mps 754 mmHg 71%
    19:00 +32°C° 0 mm 5 mps 754 mmHg 74%
    20:00 +32°C° 0 mm 5 mps 755 mmHg 76%
    21:00 +32°C° 0 mm 5 mps 756 mmHg 79%
    22:00 +30°C° 0 mm 5 mps 756 mmHg 79%
    23:00 +30°C° 0 mm 5 mps 756 mmHg 79%

    24 April, Wednesday

    Time Temperature Precipitation Wind Pressure Humidity
    00:00 +30°C° 0 mm 5 mps 755 mmHg 78%
    01:00 +30°C° 0 mm 5 mps 755 mmHg 79%
    02:00 +30°C° 0 mm 5 mps 755 mmHg 80%
    03:00 +30°C° 0 mm 4 mps 754 mmHg 81%
    04:00 +30°C° 0 mm 4 mps 755 mmHg 81%
    05:00 +30°C° 0 mm 4 mps 755 mmHg 82%
    06:00 +29°C° 0 mm 4 mps 756 mmHg 82%
    07:00 +32°C° 0 mm 4 mps 756 mmHg 75%
    08:00 +33°C° 0 mm 5 mps 757 mmHg 68%
    09:00 +35°C° 0 mm 5 mps 757 mmHg 62%
    10:00 +36°C° 0 mm 5 mps 757 mmHg 58%
    11:00 +37°C° 0 mm 5 mps 756 mmHg 54%
    12:00 +39°C° 0 mm 6 mps 756 mmHg 51%
    13:00 +38°C° 0 mm 6 mps 755 mmHg 52%
    14:00 +38°C° 0 mm 6 mps 755 mmHg 53%
    15:00 +38°C° 0 mm 6 mps 754 mmHg 54%
    16:00 +35°C° 0 mm 5 mps 754 mmHg 60%
    17:00 +34°C° 0 mm 5 mps 755 mmHg 66%
    18:00 +33°C° 0 mm 5 mps 755 mmHg 72%
    19:00 +32°C° 0 mm 5 mps 756 mmHg 74%
    20:00 +32°C° 0 mm 5 mps 756 mmHg 76%
    21:00 +32°C° 0 mm 5 mps 757 mmHg 78%
    22:00 +32°C° 0 mm 5 mps 756 mmHg 79%
    23:00 +30°C° 0 mm 5 mps 756 mmHg 80%

    25 April, Thursday

    Time Temperature Precipitation Wind Pressure Humidity
    00:00 +30°C° 0 mm 5 mps 756 mmHg 81%
    01:00 +30°C° 0.1 mm 5 mps 755 mmHg 82%
    02:00 +30°C° 0.1 mm 5 mps 755 mmHg 82%
    03:00 +30°C° 0.1 mm 5 mps 754 mmHg 83%
    04:00 +29°C° 0.1 mm 4 mps 755 mmHg 84%
    05:00 +29°C° 0.1 mm 4 mps 756 mmHg 85%
    06:00 +29°C° 0.1 mm 3 mps 756 mmHg 85%
    07:00 +31°C° 0.2 mm 3 mps 757 mmHg 77%
    08:00 +33°C° 0.2 mm 3 mps 758 mmHg 69%
    09:00 +35°C° 0.2 mm 3 mps 758 mmHg 61%
    10:00 +36°C° 0.1 mm 3 mps 758 mmHg 57%
    11:00 +37°C° 0.1 mm 4 mps 757 mmHg 52%
    12:00 +38°C° 0.1 mm 4 mps 756 mmHg 48%
    13:00 +37°C° 2 mm 4 mps 756 mmHg 54%
    14:00 +35°C° 2 mm 4 mps 755 mmHg 60%
    15:00 +34°C° 2 mm 4 mps 755 mmHg 66%
    16:00 +33°C° 0 mm 4 mps 755 mmHg 68%
    17:00 +33°C° 0 mm 4 mps 755 mmHg 71%
    18:00 +32°C° 0 mm 5 mps 755 mmHg 73%
    19:00 +32°C° 0 mm 4 mps 756 mmHg 75%
    20:00 +30°C° 0 mm 4 mps 756 mmHg 76%
    21:00 +30°C° 0 mm 4 mps 757 mmHg 77%
    22:00 +30°C° 0 mm 4 mps 756 mmHg 78%
    23:00 +30°C° 0 mm 4 mps 756 mmHg 78%

    26 April, Friday

    Time Temperature Precipitation Wind Pressure Humidity
    00:00 +30°C° 0 mm 4 mps 756 mmHg 79%
    01:00 +30°C° 0 mm 4 mps 755 mmHg 80%
    02:00 +30°C° 0 mm 4 mps 755 mmHg 80%
    03:00 +30°C° 0 mm 4 mps 754 mmHg 80%
    04:00 +30°C° 0 mm 4 mps 755 mmHg 80%
    05:00 +30°C° 0 mm 4 mps 755 mmHg 81%
    06:00 +30°C° 0 mm 4 mps 756 mmHg 81%
    07:00 +32°C° 0 mm 4 mps 756 mmHg 74%
    08:00 +34°C° 0 mm 4 mps 757 mmHg 68%
    09:00 +35°C° 0 mm 4 mps 757 mmHg 62%
    10:00 +36°C° 0 mm 4 mps 756 mmHg 58%
    11:00 +37°C° 0 mm 5 mps 756 mmHg 55%
    12:00 +39°C° 0 mm 5 mps 755 mmHg 51%
    13:00 +37°C° 0 mm 5 mps 755 mmHg 52%
    14:00 +38°C° 0 mm 6 mps 754 mmHg 53%
    15:00 +38°C° 0 mm 6 mps 753 mmHg 54%
    16:00 +35°C° 0 mm 6 mps 753 mmHg 61%
    17:00 +34°C° 0 mm 6 mps 754 mmHg 67%
    18:00 +32°C° 0 mm 5 mps 754 mmHg 73%
    19:00 +32°C° 0 mm 5 mps 754 mmHg 75%
    20:00 +32°C° 0 mm 5 mps 755 mmHg 78%
    21:00 +32°C° 0 mm 5 mps 756 mmHg 80%
    22:00 +30°C° 0 mm 5 mps 755 mmHg 79%
    23:00 +30°C° 0 mm 5 mps 755 mmHg 78%
    Show more